Knox, IN

1:12 PM CDT on July 23, 2017 (GMT -0500)
Starke County

Weather History for KOXI - May, 2014

Change the Weather History Date:

Sunday, May 25, 2014

  Actual Average (KRCR) Record (KRCR)
Temperature  
Mean Temperature 66 °F -  
Max Temperature 90 °F 75 °F 87 °F (2016)
Min Temperature 50 °F 51 °F 39 °F (2013)
Cooling Degree Days 1    
Growing Degree Days 16 (Base 50)    
Moisture  
Dew Point 47 °F    
Average Humidity 53    
Maximum Humidity 92    
Minimum Humidity 24    
Precipitation  
Precipitation 0.00 in - - ()
Sea Level Pressure  
Sea Level Pressure 30.11 in    
Wind  
Wind Speed 3 mph (South)    
Max Wind Speed 13 mph    
Max Gust Speed 17 mph    
Visibility 10 miles    
Events      
Averages and records for this station are not official NWS values.
T = Trace of Precipitation, MM = Missing Value Source: NWS Daily Summary

Daily Weather History Graph

Daily Weather History Graph

Search for Another Location

Airport or City:

Trip Planner

Search our weather history database for the weather conditions in past years. The results will help you decide how hot, cold, wet, or windy it might be!

Date:

Astronomy

May. 25, 2014 Rise Set
Actual Time 5:19 AM CDT 8:07 PM CDT
Civil Twilight 4:47 AM CDT 8:40 PM CDT
Nautical Twilight 4:06 AM CDT 9:21 PM CDT
Astronomical Twilight 3:19 AM CDT 10:08 PM CDT
Moon 3:26 AM CDT (5/25) 5:06 PM CDT (5/25)
Length of Visible Light 15h 53m
Length of Day
14h 48m
Waning Crescent, 10% of the Moon is Illuminated
May 25
Waning Crescent
May 28
New
Jun 5
First Quarter
Jun 12
Full
Jun 19
Last Quarter

Hourly Weather History & Observations

Time (CDT) Temp. Dew Point Humidity Pressure Visibility Wind Dir Wind Speed Gust Speed Precip Events Conditions
12:15 AM 56.8 °F 49.5 °F 76% 30.15 in 10.0 mi Calm Calm - N/A   Clear
12:35 AM 55.8 °F 49.8 °F 80% 30.15 in 10.0 mi Calm Calm - N/A   Clear
12:55 AM 55.6 °F 49.6 °F 80% 30.14 in 10.0 mi Calm Calm - N/A   Clear
1:15 AM 55.4 °F 49.1 °F 79% 30.14 in 10.0 mi Calm Calm - N/A   Clear
1:35 AM 54.1 °F 48.7 °F 82% 30.14 in 10.0 mi Calm Calm - N/A   Clear
1:55 AM 53.6 °F 48.9 °F 84% 30.14 in 10.0 mi Calm Calm - N/A   Clear
2:15 AM 53.8 °F 48.9 °F 84% 30.14 in 10.0 mi Calm Calm - N/A   Clear
2:35 AM 53.2 °F 49.1 °F 86% 30.13 in 10.0 mi Calm Calm - N/A   Clear
2:55 AM 52.3 °F 49.1 °F 89% 30.13 in 10.0 mi Calm Calm - N/A   Clear
3:15 AM 52.2 °F 49.3 °F 90% 30.13 in 10.0 mi Calm Calm - N/A   Clear
3:35 AM 51.8 °F 49.1 °F 90% 30.13 in 10.0 mi Calm Calm - N/A   Clear
3:55 AM 51.1 °F 48.6 °F 91% 30.13 in 10.0 mi Calm Calm - N/A   Clear
4:15 AM 50.2 °F 48.0 °F 92% 30.14 in 10.0 mi Calm Calm - N/A   Clear
4:35 AM 50.0 °F 47.7 °F 92% 30.14 in 10.0 mi Calm Calm - N/A   Clear
4:55 AM 50.7 °F 48.6 °F 92% 30.14 in 10.0 mi Calm Calm - N/A   Clear
5:15 AM 50.5 °F 47.8 °F 90% 30.15 in 10.0 mi Calm Calm - N/A   Clear
5:35 AM 50.2 °F 47.7 °F 91% 30.15 in 10.0 mi Calm Calm - N/A   Clear
5:55 AM 50.7 °F 47.8 °F 90% 30.15 in 10.0 mi Calm Calm - N/A   Clear
6:15 AM 50.7 °F 48.0 °F 90% 30.15 in 10.0 mi Calm Calm - N/A   Clear
6:35 AM 51.8 °F 48.4 °F 88% 30.15 in 10.0 mi Calm Calm - N/A   Clear
6:55 AM 54.5 °F 49.8 °F 84% 30.16 in 10.0 mi Calm Calm - N/A   Clear
7:15 AM 57.7 °F 51.3 °F 79% 30.16 in 10.0 mi Calm Calm - N/A   Clear
7:35 AM 60.1 °F 51.4 °F 73% 30.16 in 10.0 mi Calm Calm - N/A   Clear
7:55 AM 62.4 °F 51.3 °F 67% 30.16 in 10.0 mi SSE 4.6 mph - N/A   Clear
8:15 AM 64.9 °F 51.6 °F 62% 30.16 in 10.0 mi South 3.5 mph - N/A   Clear
8:35 AM 66.9 °F 51.6 °F 58% 30.16 in 10.0 mi SSE 3.5 mph - N/A   Clear
9:15 AM 71.4 °F 51.1 °F 49% 30.16 in 10.0 mi WSW 3.5 mph - N/A   Clear
9:55 AM 74.1 °F 48.6 °F 40% 30.15 in 10.0 mi WSW 6.9 mph - N/A   Clear
10:15 AM 75.4 °F 48.2 °F 38% 30.16 in 10.0 mi SW 5.8 mph - N/A   Clear
10:35 AM 75.7 °F 47.3 °F 36% 30.16 in 10.0 mi SSW 8.1 mph - N/A   Clear
10:55 AM 76.5 °F 47.3 °F 36% 30.16 in 10.0 mi SSW 5.8 mph - N/A   Clear
11:15 AM 77.0 °F 46.9 °F 34% 30.15 in 10.0 mi South 8.1 mph - N/A   Clear
11:35 AM 77.0 °F 46.2 °F 34% 30.14 in 10.0 mi SE 3.5 mph - N/A   Clear
11:55 AM 77.5 °F 46.8 °F 34% 30.14 in 10.0 mi SSW 12.7 mph 17.3 mph N/A   Clear
12:15 PM 78.3 °F 45.9 °F 32% 30.13 in 10.0 mi South 10.4 mph - N/A   Clear
12:35 PM 78.6 °F 45.9 °F 31% 30.13 in 10.0 mi SW 5.8 mph - N/A   Clear
12:55 PM 79.3 °F 45.5 °F 30% 30.13 in 10.0 mi SSW 6.9 mph - N/A   Clear
1:15 PM 79.9 °F 44.8 °F 29% 30.12 in 10.0 mi SSW 5.8 mph - N/A   Clear
1:55 PM 81.0 °F 43.7 °F 27% 30.11 in 10.0 mi South 9.2 mph - N/A   Clear
2:15 PM 81.1 °F 43.5 °F 26% 30.10 in 10.0 mi SSW 4.6 mph - N/A   Clear
2:35 PM 81.5 °F 43.0 °F 26% 30.10 in 10.0 mi SW 8.1 mph - N/A   Clear
2:55 PM 81.5 °F 44.2 °F 27% 30.10 in 10.0 mi SW 4.6 mph - N/A   Clear
3:15 PM 81.7 °F 43.2 °F 26% 30.09 in 10.0 mi SSW 11.5 mph - N/A   Clear
3:35 PM 82.0 °F 41.4 °F 24% 30.08 in 10.0 mi SW 4.6 mph - N/A   Clear
3:55 PM 82.2 °F 42.6 °F 25% 30.08 in 10.0 mi South 6.9 mph - N/A   Clear
4:15 PM 82.0 °F 43.5 °F 26% 30.07 in 10.0 mi South 4.6 mph - N/A   Clear
4:35 PM 82.2 °F 41.7 °F 24% 30.07 in 10.0 mi SSE 8.1 mph - N/A   Clear
4:55 PM 82.2 °F 43.0 °F 25% 30.06 in 10.0 mi South 6.9 mph - N/A   Clear
5:15 PM 82.4 °F 42.6 °F 24% 30.05 in 10.0 mi SSW 9.2 mph - N/A   Clear
5:35 PM 82.2 °F 43.0 °F 25% 30.05 in 10.0 mi SSE 8.1 mph - N/A   Clear
5:55 PM 82.0 °F 44.1 °F 26% 30.04 in 10.0 mi SSW 5.8 mph - N/A   Clear
6:15 PM 81.7 °F 43.5 °F 26% 30.04 in 10.0 mi South 10.4 mph - N/A   Clear
6:35 PM 81.5 °F 43.5 °F 26% 30.04 in 10.0 mi SSE 9.2 mph - N/A   Clear
6:55 PM 80.8 °F 43.3 °F 27% 30.04 in 10.0 mi South 8.1 mph - N/A   Clear
7:15 PM 80.1 °F 43.9 °F 28% 30.04 in 10.0 mi South 8.1 mph - N/A   Clear
7:35 PM 78.6 °F 43.5 °F 29% 30.04 in 10.0 mi SSE 6.9 mph - N/A   Clear
7:55 PM 76.1 °F 44.2 °F 32% 30.04 in 10.0 mi South 6.9 mph - N/A   Clear
8:15 PM 74.1 °F 44.8 °F 35% 30.04 in 10.0 mi SSE 6.9 mph - N/A   Clear
8:35 PM 71.6 °F 45.9 °F 40% 30.04 in 10.0 mi South 5.8 mph - N/A   Clear
8:55 PM 69.6 °F 46.8 °F 44% 30.04 in 10.0 mi South 5.8 mph - N/A   Clear
9:15 PM 68.4 °F 47.5 °F 47% 30.04 in 10.0 mi South 5.8 mph - N/A   Clear
9:35 PM 67.8 °F 46.6 °F 46% 30.05 in 10.0 mi South 5.8 mph - N/A   Clear
9:55 PM 67.8 °F 46.4 °F 46% 30.06 in 10.0 mi South 5.8 mph - N/A   Clear
10:15 PM 67.8 °F 46.0 °F 46% 30.06 in 10.0 mi South 5.8 mph - N/A   Clear
10:35 PM 67.1 °F 46.2 °F 47% 30.06 in 10.0 mi South 5.8 mph - N/A   Clear
10:55 PM 65.8 °F 47.1 °F 51% 30.07 in 10.0 mi SSW 4.6 mph - N/A   Clear
11:15 PM 64.8 °F 48.6 °F 56% 30.07 in 10.0 mi South 4.6 mph - N/A   Clear
11:35 PM 64.0 °F 47.5 °F 55% 30.07 in 10.0 mi SSW 3.5 mph - N/A   Clear
11:55 PM 62.4 °F 48.0 °F 59% 30.07 in 10.0 mi Calm Calm - N/A   Clear